Location: Grossmotten
(48.5500°N, 15.3833°E)
Time: 09:52:34
(UTC+00:00)

COSMO-SKYMED 1 - Pass Details

Date: 15 November 2019
Orbit: 621 x 623 km, 97.9° (Epoch: 16 December)

Event Time Altitude Azimuth Distance (km) Brightness Sun altitude
Rises 04:35:27 0° 183° (S) 2,892 6.1 -14.9°
Reaches altitude 10° 04:37:43 10° 190° (S) 1,991 5.2 -14.5°
Maximum altitude 04:41:50 42° 262° (W) 895 2.9 -13.9°
Drops below altitude 10° 04:45:59 10° 334° (NNW) 2,006 4.8 -13.2°
Enters shadow 04:47:27 - 339° (NNW) 2,581 5.4 -13.0°
